Regional Weather Roundup
Issued by NWS

Home | Current Version | Previous Version | Graphics & Text | Print | Product List | Glossary On
Versions: 1 2 3 4 5 6 7 8 9 10 11 12 13 14 15 16 17 18 19 20 21 22 23 24 25 26 27 28 29 30 31 32 33 34 35 36 37 38 39 40 41 42 43 44 45 46 47 48 49 50
314
ASUS43 KDMX 230601
RWRIA

WEATHER ROUNDUP FOR IOWA
NATIONAL WEATHER SERVICE DES MOINES IA
100 AM CDT FRI JUN 23 2017

NOTE: "FAIR" INDICATES FEW OR NO CLOUDS BELOW 12,000 FEET WITH NO
SIGNIFICANT WEATHER AND/OR OBSTRUCTIONS TO VISIBILITY.

* - THESE STATIONS ARE NOT NWS STATIONS...THUS NOT UNDER NWS
QUALITY CONTROL.  THEY ALSO DO NOT REPORT WEATHER SUCH
AS PRECIPITATION OR FOG.

IAZ001>003-012>014-020>022-031>034-043>046-230700-
   NORTHWEST IOWA

CITY           SKY/WX    TMP DP  RH WIND       PRES   REMARKS
CARROLL *      MOCLDY    68  61  77 N14       29.79S
CHEROKEE *     PTCLDY    61  56  83 N6        29.83F
DENISON *      PTCLDY    68  63  83 N8        29.83R
LE MARS *      PTCLDY    59  54  82 CALM      29.85S
ORANGE CITY *  CLEAR     63  55  77 N3        29.84S
SHELDON *      CLEAR     55  54  94 CALM      29.82S
SIOUX CITY       N/A    N/A N/A N/A MISG      29.84S
SPENCER        CLEAR     56  54  93 W5        29.83R
6HR MIN TEMP:  55; 6HR MAX TEMP:  71;

STORM LAKE *   CLOUDY    63  55  77 N8        29.83R
$$

IAZ055>058-069>071-079>083-090>094-230700-
   SOUTHWEST IOWA

CITY           SKY/WX    TMP DP  RH WIND       PRES   REMARKS
ATLANTIC *     CLOUDY    68  64  88 N9G15     29.79R
AUDUBON *      CLOUDY    70  61  73 N10       29.81R
CLARINDA *     CLOUDY    77  70  78 N17       29.76R
COUNCIL BLFS * CLOUDY    72  66  83 NE3       29.84R
CRESTON *      CLOUDY    72  70  94 N15       29.76S
HARLAN  *      CLOUDY    70  61  73 N9G17     29.84R
LAMONI         CLOUDY    76  72  87 S9        29.69F
6HR MIN TEMP:  75; 6HR MAX TEMP:  84;

RED OAK *      CLOUDY    70  68  94 N16       29.78R
SHENANDOAH *   CLOUDY    75  68  78 N14G22    29.76R
$$

IAZ047>049-059>061-072>074-084-230700-
   CENTRAL IOWA

CITY           SKY/WX    TMP DP  RH WIND       PRES   REMARKS
AMES           CLOUDY    70  67  90 N17G24    29.74R
6HR MIN TEMP:  70; 6HR MAX TEMP:  85; 6HR PCP:  0.02;

ANKENY *       CLOUDY    70  68  94 N7G16     29.73S
BOONE *        CLOUDY    68  66  94 N12       29.75S
CHARITON *     CLOUDY    72  64  78 NE14G21   29.71R
DES MOINES     CLOUDY    72  69  90 N10       29.72R
6HR MIN TEMP:  71; 6HR MAX TEMP:  87; 6HR PCP:  0.66;

GRINNELL*      DRIZZLE   72  68  87 NW15      29.71S
KNOXVILLE *    HVY RAIN  68  66  94 S29       29.67F
MARSHALLTOWN   CLOUDY    71  69  93 NW12      29.71R
6HR MIN TEMP:  71; 6HR MAX TEMP:  84; 6HR PCP: TRACE;

NEWTON *       CLOUDY    72  70  94 N14       29.70F
PELLA *        LGT RAIN  71  68  92 NW8       29.69F
PERRY *        CLOUDY    70  66  87 N12       29.77R
$$

IAZ004>006-015-016-023>025-035-036-230700-
   NORTH CENTRAL IOWA

CITY           SKY/WX    TMP DP  RH WIND       PRES   REMARKS
ALGONA *       CLOUDY    64  59  82 N5        29.81R
CLARION *        N/A     66  66 100 N10       29.78R
ESTHERVILLE    CLEAR     57  57 100 NW7       29.81S
6HR MIN TEMP:  57; 6HR MAX TEMP:  67;

FORT DODGE *   CLOUDY    66  59  77 N8        29.80R
MASON CITY     CLOUDY    66  63  90 NW12      29.79R
6HR MIN TEMP:  66; 6HR MAX TEMP:  74; 6HR PCP:  1.02;

FOREST CITY *  CLOUDY    64  57  77 N7        29.80R
WEBSTER CITY * CLOUDY    66  63  88 NW10      29.76R
IOWA FALLS *   CLOUDY    68  66  92 N10       29.76R
$$

IAZ007>011-017>019-026>030-037>042-050>054-066-230700-
   NORTHEAST IOWA

CITY           SKY/WX    TMP DP  RH WIND       PRES   REMARKS
CEDAR RAPIDS   CLOUDY    75  73  93 SW9       29.65R
6HR MIN TEMP:  74; 6HR MAX TEMP:  83; 6HR PCP: TRACE;

CHARLES CITY * CLOUDY    68  68 100 N9        29.74S
CLINTON *      CLOUDY    74  72  93 S12       29.65F
DECORAH *      CLOUDY    66  64  94 N7        29.72S
DUBUQUE        CLOUDY    74  71  91 SW8       29.67R
6HR MIN TEMP:  73; 6HR MAX TEMP:  81;

MONTICELLO *   CLOUDY    75  72  88 S5        29.65R
OELWEIN *      CLOUDY    68  68 100 N12G18    29.72R
WATERLOO       CLOUDY    69  67  93 N9        29.70R
6HR MIN TEMP:  69; 6HR MAX TEMP:  79; 6HR PCP:  0.10;

$$

IAZ064-065-067-068-078-230700-
   EAST CENTRAL IOWA

CITY           SKY/WX    TMP DP  RH WIND       PRES   REMARKS
DAVENPORT      CLEAR     75  71  87 S15       29.64F
6HR MIN TEMP:  74; 6HR MAX TEMP:  81;

IOWA CITY      CLOUDY    79  72  79 S16       29.62F HX  82
6HR MIN TEMP:  75; 6HR MAX TEMP:  84;

MT. PLEASANT * CLOUDY    76  72  86 S5        29.70S
MUSCATINE *    PTCLDY    77  72  83 S12       29.66F
QUAD CITIES    CLEAR     76  71  85 S12       29.64F
6HR MIN TEMP:  74; 6HR MAX TEMP:  83;

$$

IAZ062-063-075>077-085>089-095>099-230700-
   SOUTHEAST IOWA

CITY           SKY/WX    TMP DP  RH WIND       PRES   REMARKS
BURLINGTON     CLOUDY    77  73  87 SW8       29.70F
6HR MIN TEMP:  77; 6HR MAX TEMP:  81;

FAIRFIELD *    CLOUDY    75  70  83 S8        29.67F
FORT MADISON * CLOUDY    77  73  88 S7        29.72S
KEOKUK *       MOCLDY    77  73  88 S6        29.70S
OSKALOOSA *      N/A     74  71  90 S6        29.67F
OTTUMWA        PTCLDY    76  73  91 S6        29.68S
6HR MIN TEMP:  75; 6HR MAX TEMP:  85;

WASHINGTON *   CLOUDY    75  73  94 S10       29.66F
$$

ABBREVIATIONS USED IN REMARKS
   TC - TEMPERATURES IN CELSIUS
  WCI - WIND CHILL INDEX
   HX - HEAT INDEX
  VSB - VISIBILITY
$$





USA.gov is the U.S. government's official web portal to all federal, state and local government web resources and services.